Voltar ao catálogo

STARLINK-5094

AtivoComunicaçõesVLEO
NORAD 53977·PAYLOAD·🇺🇸 United States

Lançado Oct 5, 2022 de Vandenberg Space Force Base

Loading…

Próximas Passagens (próximas 24 horas)

TLE

AtualizadoSource: CelesTrak SupGP

Época: Sep 15, 2026, 01:51 UTC

1 53977C 22125P   26258.07756944 -.00121060  00000+0 -34624-2 0  2588
2 53977  53.1572  76.8353 0001175  84.6430  30.5313 15.35469389    16

Acompanhe STARLINK-5094 em tempo real com AllMySat

Download on the App Store